Location: Atherton
(17.2661°S, 145.4859°E)
Time: 00:06:01
(UTC+10:00)

Vanguard 1 - Pass Details

Date: 02 July 2025
Orbit: 649 x 3822 km, 34.2° (Epoch: 17 July)

Event Time Altitude Azimuth Distance (km) Brightness Sun altitude
Rises 11:14:00 0° 356° (N) 6,619 14.9 46.4°
Reaches altitude 10° 11:24:55 10° 27° (NNE) 6,405 15.2 47.3°
Maximum altitude 11:30:05 11° 42° (NE) 6,549 15.1 47.7°
Drops below altitude 10° 11:35:31 10° 56° (NE) 6,835 15.0 48.1°
Sets 11:48:32 0° 84° (E) 7,906 14.8 48.9°
